Flag for Germany Weather past 2 weeks in Neuburg an der Donau, Bavaria, Germany

Now
48 °F

Cool.


Feels Like: 48 °F
Forecast: 46 / 70 °F
Wind: 1 mph from Southeast

Location: Neuburg / Donau

Current Time: May 31, 2015 at 1:04:57 AM

Latest Report: May 31, 2015 at 12:20 AM


Visibility: N/A

Pressure: 30.09 "Hg

Humidity: 87%

Dew point: 45 °F

Location of Neuburg an der DonauLocation

Historic Weather in Neuburg an der Donau — Graph

°F

Neuburg an der Donau temperature yesterday

Maximum temperature yesterday: 61 °F (at 4:20 PM)
Minimum temperature yesterday: 50 °F (at 11:20 PM)
Average temperature yesterday: 56 °F

Past Weeks' High & Low Weather Summary

 TemperatureHumidityPressure
High73 °F (May 18, 6:20 PM)100% (May 16, 5:20 AM)30.30 "Hg (May 16, 5:20 AM)
Low41 °F (May 16, 6:20 AM)36% (May 22, 6:20 PM)29.74 "Hg (May 18, 6:20 PM)
Average55 °F73%30.05 "Hg
* Reported May 15 11:20 PM — May 30 11:20 PM, Neuburg an der Donau, Weather by CustomWeather, © 2015

Note: Actual official high and low records may vary slightly from our data, if they occured in-between our weather recording intervals... More about our weather records

Advertising

Neuburg an der Donau weather history for previous 24 hours

 ConditionsComfort  
Time TempWeatherWind HumidityBarometerVisibility
11:20 PM
Sat, May 30
50 °FCool.2 mph82%30.09 "HgN/A
10:20 PM54 °FCool.2 mph72%30.07 "HgN/A
9:20 PM55 °FCool.6 mph67%30.07 "HgN/A
8:20 PM57 °FCool.8 mph63%30.04 "HgN/A
7:20 PM59 °FRefreshingly cool.10 mph59%30.04 "HgN/A
6:20 PM61 °FRefreshingly cool.14 mph55%30.04 "HgN/A
5:20 PM61 °FRefreshingly cool.16 mph59%30.01 "HgN/A
4:20 PM61 °FCool.13 mph63%30.01 "HgN/A
3:20 PM59 °FCool.12 mph72%30.01 "HgN/A
2:20 PM59 °FCool.12 mph72%30.01 "HgN/A
1:20 PM55 °FCool.9 mph77%30.01 "HgN/A
12:20 PM55 °FCool.13 mph77%30.01 "HgN/A
11:20 AM57 °FCool.6 mph82%29.98 "HgN/A
10:20 AM55 °FCool.12 mph88%29.98 "HgN/A
9:20 AM59 °FCool.13 mph77%29.95 "HgN/A
8:20 AM59 °FCool.10 mph77%29.92 "HgN/A
7:20 AM55 °FCool.6 mph88%29.92 "HgN/A
6:20 AM52 °FCool.3 mph94%29.92 "HgN/A
5:20 AM52 °FCool.3 mph94%29.92 "HgN/A
4:20 AM52 °FCool.1 mph100%29.92 "HgN/A
3:20 AM52 °FCool.2 mph94%29.92 "HgN/A
2:20 AM52 °FCool.1 mph100%29.92 "HgN/A
1:20 AM54 °FCool.3 mph94%29.89 "HgN/A
Weather by CustomWeather, © 2015

See weather overviewHow to use our weather pages